{"data":{"norad_id":62452,"intl_designator":"2024-251W","name":"STARLINK-32656","alt_names":[],"object_type":"PAYLOAD","status":"ACTIVE","operator":null,"country":"US","launch_date":"2024-12-29","launch_site_code":"AFWTR","launch_vehicle":null,"mission":null,"orbit_class":"UNKNOWN","rcs_meters":null,"size_class":null,"mass_kg":null,"dimensions":null,"purposes":["comms"],"wikipedia_slug":null,"has_3d_model":false,"image_url":null,"decayed_at":null,"tle_current":{"epoch":"2026-09-21T20:32:07.086912Z","epoch_age_seconds":57311,"freshness":"FRESH","line1":"1 62452U 24251W   26264.85563758  .00024151  00000+0  72350-3 0  9992","line2":"2 62452  53.1593 141.1977 0000928  86.8399 273.2710 15.34405691 97869","mean_motion":15.34405691,"eccentricity":9.28e-5,"inclination_deg":53.1593,"raan_deg":141.1977,"arg_perigee_deg":86.8399,"mean_anomaly_deg":273.271,"bstar":0.0007235,"rev_number":9786,"period_min":93.847410006771,"perigee_km":462.05149700346,"apogee_km":463.32115381266,"semimajor_km":6840.8233254081,"source":"CELESTRAK","updated_at":"2026-09-22T09:00:49.583838Z"}}}